[[{"header":{"parameterUnit":"m.s-1","parameterCategory":1,"la1":30.2991,"la2":30.254,"lo1":-89.0895,"lo2":-89.0444,"dy":0.0017,"dx":0.0017,"nx":28,"ny":28,"refTime":"2024-03-06T09:00:00:Z","depth":0,"parameterNumber":2,"parameterNumberName":"U-component_of_WINDS"},"data":[0,0,0,0,0,0,0,0,0,0,0,0,0,0,0,0,0,0,0,0,0,0,0,0,0,0,0,0,0,0,0,0,0,0,0,0,0,0,0,0,0,0,0,0,0,0,0,0,0,0,0,0,0,0,0,0,0,0,0.1222,0.1222,0,0.1229,0.1229,0.1229,0.1237,0.1237,0.1237,0.1237,0.1244,0.1244,0.1244,0,0,0,0,0,0,0,0,0,0,0,0,0,0.1215,0.1215,0.1222,0.1222,0.1222,0.1229,0.1229,0.1229,0.1237,0.1237,0.1237,0.1237,0.1244,0.1244,0.1244,0,0,0,0,0,0,0,0,0,0,0,0,0,0.1219,0.1215,0.1222,0.1227,0.1227,0.1229,0.1229,0.1229,0.1237,0.1237,0.1237,0.1237,0.1244,0.1244,0.1244,0.1241,0,0,0.1244,0.1244,0,0,0,0,0,0,0,0,0.1219,0.122,0.1226,0.1226,0.1227,0.1232,0.1229,0.1233,0.1237,0.1233,0.1237,0.1237,0.124,0.124,0.1241,0.1241,0.1242,0.1244,0.1244,0.1244,0.1244,0,0,0,0,0,0,0,0.1219,0.1219,0.1225,0.1226,0.1227,0.1229,0.1229,0.123,0.1235,0.1234,0.1234,0.1235,0.124,0.1241,0.1241,0.1242,0.1244,0.1244,0.1245,0.1245,0.1241,0.1241,0,0,0,0,0,0,0.1218,0.1219,0.1224,0.1225,0.1223,0.1229,0.1229,0.123,0.1235,0.1236,0.1235,0.1235,0.1241,0.1241,0.1242,0.1239,0.1244,0.1245,0.1245,0.1241,0.1241,0.124,0,0,0,0,0,0,0.1218,0.1218,0.1224,0.1222,0.1223,0.1228,0.1229,0.123,0.1231,0.1236,0.1237,0.1235,0.1241,0.1242,0.1241,0.1239,0.1245,0.1245,0.1241,0.1241,0.1241,0.1233,0,0,0,0,0,0,0.1217,0.1218,0.1217,0.1222,0.1223,0.1224,0.1229,0.123,0.1232,0.1232,0.1237,0.1237,0.1241,0.1241,0.1242,0.1239,0.1245,0.1241,0.1241,0.1241,0.1233,0.1232,0.1232,0,0,0,0,0,0.1217,0.1214,0.1217,0.1217,0.1222,0.1223,0.1224,0.1229,0.1231,0.123,0.1234,0.1237,0.124,0.1241,0.1242,0.1239,0.1241,0.1241,0.1241,0.1234,0.1233,0.1232,0,0,0,0,0,0,0.1208,0.1215,0.1218,0.1217,0.122,0.1225,0.1224,0.1227,0.1229,0.123,0.1235,0.1236,0.1235,0.1237,0.1239,0.1237,0.1241,0.1241,0.1236,0.1235,0.1234,0.1233,0.1245,0,0,0,0,0,0.1207,0.1207,0.1213,0.1211,0.1213,0.1218,0.1219,0.1222,0.1225,0.1226,0.123,0.1232,0.1234,0.1234,0.1236,0.1234,0.1235,0.1233,0.1232,0.1231,0.1231,0.123,0.1229,0.1239,0.1239,0.1239,0,0,0.1202,0.1206,0.1206,0.121,0.1212,0.1213,0.1219,0.1219,0.122,0.1226,0.1226,0.1229,0.1232,0.1232,0.1231,0.1233,0.1228,0.1231,0.123,0.123,0.123,0.1229,0.1228,0.1239,0.1239,0.1239,0,0,0.1195,0.1198,0.1197,0.1199,0.1204,0.1207,0.1207,0.1212,0.1214,0.1214,0.1219,0.122,0.1222,0.1225,0.1226,0.122,0.1224,0.1221,0.1216,0.1215,0.1215,0.1214,0.1212,0.1211,0.122,0.122,0.122,0,0.1189,0.119,0.1196,0.1196,0.1198,0.1204,0.1203,0.1206,0.121,0.1211,0.1213,0.1216,0.1219,0.1219,0.1218,0.1219,0.1219,0.122,0.1214,0.1214,0.1213,0.1211,0.1211,0.122,0.122,0.122,0.122,0,0.1183,0.1184,0.1183,0.1187,0.1188,0.1188,0.1194,0.1195,0.1198,0.1202,0.1202,0.1206,0.1208,0.1209,0.1212,0.1209,0.121,0.1213,0.1217,0.1212,0.121,0.1209,0.1219,0.122,0.122,0.122,0,0,0.1169,0.1177,0.1177,0.1179,0.1184,0.1185,0.1185,0.1188,0.1189,0.1192,0.1192,0.1194,0.1197,0.1199,0.1203,0.1202,0.1198,0.1206,0.1206,0.1204,0.1195,0.1192,0.1191,0.12,0.12,0.12,0.1195,0,0.1162,0.1163,0.1169,0.1168,0.1169,0.1176,0.1176,0.1179,0.1183,0.1184,0.1188,0.1189,0.1194,0.1195,0.1195,0.1198,0.1196,0.1199,0.12,0.12,0.1199,0.119,0.1187,0.1182,0.1194,0.1194,0.1194,0,0.1154,0.1157,0.1157,0.1163,0.1163,0.1163,0.1167,0.1168,0.1172,0.1175,0.1177,0.1181,0.1182,0.1186,0.1187,0.1189,0.119,0.1192,0.1192,0.1192,0.1196,0.119,0.118,0.1179,0.1193,0.1193,0.1193,0,0.1144,0.1148,0.1148,0.115,0.1157,0.1157,0.116,0.1164,0.1166,0.1169,0.117,0.1173,0.1174,0.1176,0.1181,0.1184,0.1182,0.1186,0.1184,0.1184,0.1183,0.1183,0.1173,0.1184,0.1184,0.1184,0.1184,0,0.1136,0.1135,0.1144,0.1144,0.1144,0.115,0.115,0.1153,0.1157,0.1158,0.1164,0.1165,0.1172,0.1173,0.1177,0.1178,0.1178,0.118,0.1181,0.118,0.1179,0.118,0.118,0.1184,0.1184,0.1184,0.1184,0,0.1124,0.113,0.1131,0.1137,0.1139,0.1139,0.1144,0.1145,0.1149,0.115,0.1151,0.1157,0.116,0.1165,0.1169,0.1172,0.1171,0.1173,0.1169,0.117,0.1167,0.1167,0.1157,0.1156,0.1168,0.1168,0.1168,0,0.1118,0.1118,0.1125,0.1126,0.1129,0.113,0.1132,0.1139,0.1141,0.1146,0.1146,0.1149,0.1151,0.1154,0.1159,0.1162,0.1164,0.1161,0.1165,0.1163,0.1164,0.1164,0.1164,0.116,0.1159,0.1159,0.1159,0,0.1106,0.111,0.1112,0.1116,0.1118,0.1121,0.1124,0.1125,0.1133,0.1134,0.1137,0.1139,0.1143,0.1146,0.115,0.1153,0.1157,0.1158,0.1158,0.1155,0.1153,0.1154,0.1167,0.1158,0.1158,0.1158,0.1158,0.1158,0.1097,0.1097,0.1103,0.1105,0.1109,0.1112,0.1113,0.1118,0.112,0.1124,0.1128,0.113,0.1135,0.1141,0.1143,0.1145,0.1148,0.1147,0.1147,0.1146,0.1145,0.1154,0.1146,0.1146,0.1146,0.1146,0.1146,0,0.1086,0.109,0.1092,0.1097,0.1099,0.1104,0.1108,0.111,0.1112,0.1116,0.1119,0.1122,0.1125,0.1131,0.1134,0.1135,0.1137,0.1135,0.1135,0.1136,0.1143,0.1143,0.1133,0.1133,0.1133,0.1133,0.1133,0.1133,0.108,0.1081,0.1085,0.1087,0.1091,0.1094,0.1096,0.1099,0.1103,0.1106,0.1109,0.1112,0.1117,0.1121,0.1124,0.1126,0.1127,0.1125,0.1127,0.1134,0.1135,0.1136,0.1136,0.1125,0.1125,0.1119,0.1119,0.1119]},{"header":{"parameterUnit":"m.s-1","parameterCategory":1,"la1":30.2991,"la2":30.254,"lo1":-89.0895,"lo2":-89.0444,"dy":0.0017,"dx":0.0017,"nx":28,"ny":28,"refTime":"2024-03-06T09:00:00:Z","depth":0,"parameterNumber":3,"parameterNumberName":"V-component_of_WINDS"},"data":[0,0,0,0,0,0,0,0,0,0,0,0,0,0,0,0,0,0,0,0,0,0,0,0,0,0,0,0,0,0,0,0,0,0,0,0,0,0,0,0,0,0,0,0,0,0,0,0,0,0,0,0,0,0,0,0,0,0,-0.103,-0.1031,0,-0.1121,-0.1122,-0.1123,-0.1154,-0.1154,-0.1154,-0.1153,-0.1247,-0.125,-0.1253,0,0,0,0,0,0,0,0,0,0,0,0,0,-0.0886,-0.0889,-0.103,-0.1031,-0.1033,-0.1121,-0.1122,-0.1123,-0.1154,-0.1154,-0.1154,-0.1153,-0.1246,-0.125,-0.1253,0,0,0,0,0,0,0,0,0,0,0,0,0,-0.096,-0.0889,-0.103,-0.1059,-0.1062,-0.1121,-0.1122,-0.1124,-0.1154,-0.1154,-0.1153,-0.1153,-0.1245,-0.1249,-0.1254,-0.129,0,0,-0.1267,-0.1268,0,0,0,0,0,0,0,0,-0.0956,-0.0965,-0.1053,-0.1057,-0.1061,-0.1126,-0.1106,-0.118,-0.1155,-0.1119,-0.1153,-0.1153,-0.1207,-0.1215,-0.1233,-0.1295,-0.1299,-0.1267,-0.1269,-0.1271,-0.1273,0,0,0,0,0,0,0,-0.095,-0.0961,-0.1066,-0.1055,-0.1059,-0.1068,-0.1077,-0.112,-0.1165,-0.1122,-0.1125,-0.1135,-0.1209,-0.1229,-0.1235,-0.13,-0.1267,-0.1271,-0.1273,-0.1275,-0.1399,-0.1399,0,0,0,0,0,0,-0.094,-0.0957,-0.1063,-0.1069,-0.1006,-0.1071,-0.1082,-0.1105,-0.1165,-0.1173,-0.1136,-0.1136,-0.1222,-0.123,-0.1239,-0.1287,-0.1271,-0.1275,-0.1278,-0.1398,-0.1399,-0.1399,0,0,0,0,0,0,-0.0937,-0.095,-0.106,-0.1014,-0.1028,-0.1074,-0.11,-0.1108,-0.1127,-0.1175,-0.1183,-0.1147,-0.1222,-0.1233,-0.1278,-0.1291,-0.1277,-0.1281,-0.1397,-0.1398,-0.1399,-0.1383,0,0,0,0,0,0,-0.0933,-0.0948,-0.0962,-0.1014,-0.1031,-0.1096,-0.1101,-0.111,-0.1134,-0.1136,-0.1188,-0.1196,-0.1222,-0.1271,-0.1282,-0.1296,-0.1284,-0.1396,-0.1397,-0.1399,-0.1382,-0.1383,-0.1384,0,0,0,0,0,-0.0928,-0.0954,-0.0963,-0.0975,-0.1049,-0.1097,-0.1107,-0.1136,-0.1135,-0.115,-0.1181,-0.1194,-0.1287,-0.1275,-0.1288,-0.1304,-0.1395,-0.1397,-0.1399,-0.1382,-0.1383,-0.1384,0,0,0,0,0,0,-0.0903,-0.0961,-0.0972,-0.1015,-0.1051,-0.1102,-0.1122,-0.1136,-0.1173,-0.1173,-0.1209,-0.122,-0.1262,-0.1287,-0.1273,-0.1343,-0.1342,-0.1346,-0.1325,-0.1327,-0.1327,-0.1321,-0.1288,0,0,0,0,0,-0.0903,-0.0936,-0.0985,-0.1019,-0.1037,-0.1076,-0.1098,-0.1118,-0.1156,-0.1171,-0.1206,-0.1243,-0.1281,-0.1305,-0.1342,-0.1386,-0.1398,-0.1403,-0.1404,-0.1404,-0.1408,-0.1434,-0.1437,-0.1405,-0.1405,-0.1405,0,0,-0.0902,-0.0938,-0.0957,-0.1015,-0.1045,-0.108,-0.1089,-0.1125,-0.1151,-0.1177,-0.1222,-0.1248,-0.1292,-0.1337,-0.1358,-0.1359,-0.1419,-0.1406,-0.1406,-0.141,-0.1436,-0.1439,-0.1441,-0.1406,-0.1406,-0.1406,0,0,-0.092,-0.095,-0.0982,-0.1012,-0.1057,-0.1083,-0.1091,-0.114,-0.1158,-0.1204,-0.1224,-0.1256,-0.132,-0.1351,-0.1375,-0.1405,-0.1419,-0.1416,-0.1421,-0.1446,-0.1448,-0.1451,-0.1462,-0.1466,-0.1419,-0.1419,-0.1419,0,-0.0914,-0.0966,-0.0996,-0.1032,-0.1057,-0.1082,-0.1116,-0.1143,-0.1198,-0.1216,-0.1215,-0.1297,-0.1328,-0.1381,-0.1389,-0.1407,-0.1418,-0.1411,-0.1445,-0.1448,-0.1451,-0.1463,-0.1467,-0.1419,-0.1419,-0.1419,-0.1419,0,-0.0957,-0.0994,-0.1014,-0.1067,-0.1094,-0.1128,-0.1165,-0.1189,-0.1206,-0.1233,-0.1279,-0.1317,-0.1364,-0.1377,-0.1394,-0.1433,-0.1432,-0.1438,-0.1438,-0.1453,-0.1464,-0.1469,-0.1418,-0.1418,-0.1418,-0.1419,0,0,-0.0962,-0.1031,-0.1038,-0.1063,-0.1115,-0.1144,-0.1179,-0.1224,-0.1245,-0.1282,-0.1314,-0.1368,-0.1374,-0.1401,-0.1422,-0.1444,-0.1467,-0.1448,-0.1449,-0.1451,-0.1513,-0.1509,-0.1514,-0.1476,-0.1477,-0.1478,-0.151,0,-0.0987,-0.1051,-0.108,-0.1131,-0.1166,-0.119,-0.1222,-0.1257,-0.1283,-0.1317,-0.1345,-0.1383,-0.1388,-0.1405,-0.1427,-0.1459,-0.148,-0.1457,-0.1507,-0.1508,-0.1496,-0.1519,-0.1515,-0.1543,-0.1514,-0.1515,-0.1516,0,-0.1024,-0.1062,-0.1117,-0.1166,-0.1181,-0.1209,-0.1253,-0.1284,-0.1326,-0.1343,-0.1374,-0.1394,-0.1433,-0.143,-0.1485,-0.1469,-0.1491,-0.151,-0.1511,-0.1518,-0.1513,-0.1528,-0.1553,-0.1558,-0.1523,-0.1522,-0.1522,0,-0.1023,-0.1087,-0.1129,-0.1149,-0.1207,-0.1226,-0.1251,-0.1292,-0.1317,-0.1356,-0.1373,-0.1415,-0.1439,-0.1472,-0.1503,-0.1498,-0.1556,-0.1555,-0.1573,-0.1572,-0.1585,-0.1584,-0.1615,-0.1597,-0.1597,-0.1597,-0.1597,0,-0.1049,-0.1082,-0.113,-0.1155,-0.1193,-0.1226,-0.1263,-0.129,-0.1326,-0.1358,-0.1382,-0.1412,-0.1451,-0.1486,-0.1511,-0.1554,-0.1564,-0.158,-0.1586,-0.1578,-0.1576,-0.1594,-0.1593,-0.1598,-0.1598,-0.1597,-0.1597,0,-0.1054,-0.1087,-0.1135,-0.1185,-0.1199,-0.1225,-0.1269,-0.1295,-0.1322,-0.1363,-0.1374,-0.1416,-0.1459,-0.1493,-0.1549,-0.1566,-0.1611,-0.1618,-0.1597,-0.16,-0.1617,-0.1615,-0.1661,-0.1669,-0.1644,-0.1645,-0.1645,0,-0.1069,-0.1095,-0.1148,-0.1171,-0.1196,-0.1233,-0.1259,-0.1292,-0.1319,-0.1368,-0.1389,-0.1433,-0.147,-0.1537,-0.1573,-0.1616,-0.1625,-0.1638,-0.1632,-0.1623,-0.1627,-0.1625,-0.1629,-0.1639,-0.1639,-0.1639,-0.1639,0,-0.1091,-0.1106,-0.1143,-0.1186,-0.1216,-0.1252,-0.1288,-0.1305,-0.1346,-0.1374,-0.1418,-0.1447,-0.1503,-0.1547,-0.1594,-0.1621,-0.1638,-0.1641,-0.1648,-0.1641,-0.1628,-0.1636,-0.16,-0.164,-0.164,-0.164,-0.164,-0.164,-0.1102,-0.1127,-0.1169,-0.121,-0.124,-0.1273,-0.1301,-0.1331,-0.1368,-0.1417,-0.1435,-0.148,-0.1522,-0.1586,-0.1613,-0.165,-0.1651,-0.166,-0.1663,-0.1665,-0.1665,-0.1621,-0.1658,-0.1658,-0.1658,-0.1658,-0.1658,0,-0.1127,-0.1155,-0.1192,-0.1242,-0.1274,-0.1286,-0.1327,-0.1353,-0.1392,-0.143,-0.1466,-0.1516,-0.1559,-0.1599,-0.1644,-0.1666,-0.1675,-0.1677,-0.1676,-0.1682,-0.166,-0.165,-0.1669,-0.1669,-0.1669,-0.1669,-0.1669,-0.1669,-0.1144,-0.1187,-0.1207,-0.1266,-0.1295,-0.1339,-0.1361,-0.1392,-0.1422,-0.1478,-0.1514,-0.1539,-0.1578,-0.1626,-0.1667,-0.1677,-0.1693,-0.1694,-0.1707,-0.1685,-0.1684,-0.1682,-0.1673,-0.1697,-0.1697,-0.1726,-0.1726,-0.1727]}]]